| time (UTC) | temp F | wind direction | speed knots | gust knots | rain 1hr in | rain 24hr in | rain mn in | humidity % | barometer mb |
| 20260906132127 | 69 | 161 | 3.5 | 11.3 | 0.00 | 0.00 | 0.00 | 47 | 1025.2 |
| 20260906130627 | 69 | 156 | 5.2 | 9.6 | 0.00 | 0.00 | 0.00 | 50 | 1025.4 |
| 20260906125127 | 68 | 160 | 5.2 | 9.6 | 0.00 | 0.00 | 0.00 | 51 | 1025.4 |
| 20260906123628 | 68 | 197 | 3.5 | 13.0 | 0.00 | 0.00 | 0.00 | 50 | 1025.6 |
| 20260906122127 | 68 | 183 | 5.2 | 13.0 | 0.00 | 0.00 | 0.00 | 49 | 1025.8 |
| 20260906120627 | 68 | 161 | 5.2 | 11.3 | 0.00 | 0.00 | 0.00 | 49 | 1025.9 |
| 20260906115126 | 68 | 166 | 5.2 | 9.6 | 0.00 | 0.00 | 0.00 | 48 | 1026.0 |
| 20260906113627 | 68 | 154 | 5.2 | 11.3 | 0.00 | 0.00 | 0.00 | 50 | 1026.3 |
| 20260906112126 | 68 | 146 | 5.2 | 9.6 | 0.00 | 0.00 | 0.00 | 48 | 1026.4 |
| 20260906110625 | 66 | 176 | 3.5 | 7.0 | 0.00 | 0.00 | 0.00 | 53 | 1026.5 |
| 20260906105125 | 66 | 178 | 1.7 | 7.0 | 0.00 | 0.00 | 0.00 | 52 | 1026.7 |
| 20260906103625 | 66 | 172 | 3.5 | 7.0 | 0.00 | 0.00 | 0.00 | 52 | 1026.8 |
| 20260906102124 | 66 | 257 | 1.7 | 7.0 | 0.00 | 0.00 | 0.00 | 56 | 1026.9 |
| 20260906100624 | 64 | 220 | 3.5 | 9.6 | 0.00 | 0.00 | 0.00 | 57 | 1027.0 |
| 20260906095123 | 64 | 177 | 3.5 | 9.6 | 0.00 | 0.00 | 0.00 | 60 | 1027.2 |
| 20260906093623 | 64 | 186 | 3.5 | 11.3 | 0.00 | 0.00 | 0.00 | 62 | 1027.2 |
| 20260906092122 | 64 | 186 | 3.5 | 11.3 | 0.00 | 0.00 | 0.00 | 62 | 1027.3 |
| 20260906090622 | 64 | 192 | 1.7 | 9.6 | 0.00 | 0.00 | 0.00 | 62 | 1027.4 |
| 20260906085121 | 62 | 191 | 3.5 | 9.6 | 0.00 | 0.00 | 0.00 | 63 | 1027.3 |
| 20260906083621 | 62 | 195 | 3.5 | 7.0 | 0.00 | 0.00 | 0.00 | 64 | 1027.4 |
| 20260906082120 | 60 | 182 | 3.5 | 5.2 | 0.00 | 0.00 | 0.00 | 68 | 1027.3 |
| 20260906080620 | 59 | 185 | 3.5 | 5.2 | 0.00 | 0.00 | 0.00 | 69 | 1027.2 |
| 20260906075120 | 59 | 187 | 1.7 | 5.2 | 0.00 | 0.00 | 0.00 | 72 | 1027.2 |
| 20260906073620 | 55 | 191 | 1.7 | 3.5 | 0.00 | 0.00 | 0.00 | 82 | 1027.2 |
| 20260906072120 | 55 | 189 | 1.7 | 1.7 | 0.00 | 0.00 | 0.00 | 84 | 1027.2 |
| 20260906070619 | 53 | 187 | 0.0 | 1.7 | 0.00 | 0.00 | 0.00 | 88 | 1027.1 |
| 20260906065119 | 51 | 145 | 0.0 | 1.7 | 0.00 | 0.00 | 0.00 | 92 | 1027.0 |
| 20260906063619 | 50 | 144 | 1.7 | 1.7 | 0.00 | 0.00 | 0.00 | 94 | 1026.9 |
| 20260906062118 | 48 | 155 | 1.7 | 1.7 | 0.00 | 0.00 | 0.00 | 97 | 1026.9 |
| 20260906060618 | 44 | 141 | 0.0 | 1.7 | 0.00 | 0.00 | 0.00 | 97 | 1026.8 |
| 20260906055117 | 44 | 158 | 0.0 | 1.7 | 0.00 | 0.00 | 0.00 | 96 | 1026.9 |
| 20260906053617 | 42 | 128 | 0.0 | 1.7 | 0.00 | 0.00 | 0.00 | 96 | 1026.7 |
| 20260906052117 | 42 | 134 | 0.0 | 1.7 | 0.00 | 0.00 | 0.00 | 97 | 1026.6 |
| 20260906050616 | 42 | 148 | 0.0 | 1.7 | 0.00 | 0.00 | 0.00 | 96 | 1026.7 |
| 20260906045115 | 44 | 128 | 0.0 | 0.0 | 0.00 | 0.00 | 0.00 | 98 | 1026.6 |
| 20260906043615 | 44 | 132 | 0.0 | 1.7 | 0.00 | 0.00 | 0.00 | 97 | 1026.6 |
| 20260906042114 | 46 | 140 | 1.7 | 1.7 | 0.00 | 0.00 | 0.00 | 96 | 1026.6 |
| 20260906040615 | 46 | 168 | 1.7 | 1.7 | 0.00 | 0.00 | 0.00 | 95 | 1026.6 |
| 20260906035114 | 46 | 158 | 1.7 | 1.7 | 0.00 | 0.00 | 0.00 | 95 | 1026.7 |
| 20260906033614 | 48 | 161 | 1.7 | 3.5 | 0.00 | 0.00 | 0.00 | 96 | 1026.8 |
| 20260906032113 | 46 | 175 | 1.7 | 3.5 | 0.00 | 0.00 | 0.00 | 95 | 1026.9 |
| 20260906030613 | 44 | 177 | 1.7 | 3.5 | 0.00 | 0.00 | 0.00 | 94 | 1027.0 |
| 20260906025112 | 42 | 168 | 1.7 | 1.7 | 0.00 | 0.00 | 0.00 | 94 | 1026.9 |
| 20260906023612 | 44 | 171 | 0.0 | 1.7 | 0.00 | 0.00 | 0.00 | 96 | 1026.7 |
| 20260906022111 | 44 | 157 | 0.0 | 1.7 | 0.00 | 0.00 | 0.00 | 96 | 1026.7 |
| 20260906020611 | 46 | 149 | 1.7 | 1.7 | 0.00 | 0.00 | 0.00 | 96 | 1026.5 |
| 20260906015111 | 44 | 154 | 1.7 | 1.7 | 0.00 | 0.00 | 0.00 | 93 | 1026.5 |
| 20260906013611 | 44 | 136 | 0.0 | 1.7 | 0.00 | 0.00 | 0.00 | 94 | 1026.5 |
| 20260906012110 | 48 | 171 | 0.0 | 1.7 | 0.00 | 0.00 | 0.00 | 95 | 1026.8 |
| 20260906010610 | 46 | 198 | 0.0 | 1.7 | 0.00 | 0.00 | 0.00 | 97 | 1026.7 |
| 20260906005110 | 46 | 184 | 1.7 | 3.5 | 0.00 | 0.00 | 0.00 | 96 | 1026.5 |
| 20260906003609 | 46 | 173 | 1.7 | 3.5 | 0.00 | 0.00 | 0.00 | 94 | 1026.6 |
| 20260906002109 | 46 | 168 | 1.7 | 3.5 | 0.00 | 0.00 | 0.00 | 97 | 1026.5 |
| 20260906000609 | 46 | 186 | 0.0 | 0.0 | 0.00 | 0.00 | 0.00 | 94 | 1026.4 |
| 20260905235108 | 48 | 196 | 1.7 | 1.7 | 0.00 | 0.00 | 0.00 | 93 | 1026.4 |
| 20260905233609 | 48 | 220 | 0.0 | 1.7 | 0.00 | 0.00 | 0.00 | 93 | 1026.3 |
| 20260905232108 | 48 | 220 | 0.0 | 1.7 | 0.00 | 0.00 | 0.00 | 93 | 1026.3 |
| 20260905230608 | 50 | 195 | 0.0 | 1.7 | 0.00 | 0.00 | 0.00 | 93 | 1026.2 |
| 20260905225107 | 50 | 220 | 1.7 | 1.7 | 0.00 | 0.00 | 0.00 | 93 | 1026.0 |
| 20260905223608 | 50 | 238 | 1.7 | 1.7 | 0.00 | 0.00 | 0.00 | 92 | 1025.8 |
| 20260905222107 | 50 | 258 | 1.7 | 1.7 | 0.00 | 0.00 | 0.00 | 88 | 1025.8 |
| 20260905220606 | 51 | 285 | 1.7 | 1.7 | 0.00 | 0.00 | 0.00 | 90 | 1025.7 |
| 20260905215105 | 51 | 251 | 1.7 | 1.7 | 0.00 | 0.00 | 0.00 | 89 | 1025.7 |
| 20260905213605 | 51 | 231 | 1.7 | 3.5 | 0.00 | 0.00 | 0.00 | 88 | 1025.6 |
| 20260905212104 | 51 | 267 | 3.5 | 3.5 | 0.00 | 0.00 | 0.00 | 84 | 1025.6 |
| 20260905210605 | 51 | 245 | 3.5 | 3.5 | 0.00 | 0.00 | 0.00 | 85 | 1025.5 |
| 20260905205105 | 51 | 263 | 1.7 | 3.5 | 0.00 | 0.00 | 0.00 | 84 | 1025.4 |
| 20260905203604 | 51 | 259 | 1.7 | 3.5 | 0.00 | 0.00 | 0.00 | 83 | 1025.3 |
| 20260905202105 | 53 | 265 | 1.7 | 3.5 | 0.00 | 0.00 | 0.00 | 83 | 1025.3 |
| 20260905200605 | 53 | 265 | 3.5 | 5.2 | 0.00 | 0.00 | 0.00 | 78 | 1025.2 |
| 20260905195104 | 55 | 241 | 1.7 | 3.5 | 0.00 | 0.00 | 0.00 | 79 | 1025.0 |
| 20260905193604 | 55 | 262 | 1.7 | 3.5 | 0.00 | 0.00 | 0.00 | 76 | 1024.9 |
| 20260905192104 | 57 | 283 | 3.5 | 5.2 | 0.00 | 0.00 | 0.00 | 71 | 1024.7 |
| 20260905190604 | 57 | 285 | 3.5 | 7.0 | 0.00 | 0.00 | 0.00 | 72 | 1024.7 |
| 20260905185103 | 57 | 285 | 3.5 | 5.2 | 0.00 | 0.00 | 0.00 | 72 | 1024.4 |
| 20260905183603 | 59 | 284 | 3.5 | 9.6 | 0.00 | 0.00 | 0.00 | 70 | 1024.3 |
| 20260905182102 | 60 | 296 | 5.2 | 9.6 | 0.00 | 0.00 | 0.00 | 67 | 1024.2 |
| 20260905180602 | 60 | 299 | 5.2 | 9.6 | 0.00 | 0.00 | 0.00 | 66 | 1024.2 |
| 20260905175101 | 62 | 299 | 9.6 | 14.8 | 0.00 | 0.00 | 0.00 | 63 | 1024.0 |
| 20260905173601 | 62 | 299 | 9.6 | 14.8 | 0.00 | 0.00 | 0.00 | 63 | 1024.0 |
| 20260905172101 | 62 | 275 | 11.3 | 17.4 | 0.00 | 0.00 | 0.00 | 57 | 1023.6 |
| 20260905170601 | 64 | 274 | 11.3 | 17.4 | 0.00 | 0.00 | 0.00 | 56 | 1023.5 |
| 20260905165100 | 64 | 283 | 9.6 | 17.4 | 0.00 | 0.00 | 0.00 | 55 | 1023.1 |
| 20260905163600 | 64 | 290 | 7.0 | 17.4 | 0.00 | 0.00 | 0.00 | 58 | 1022.9 |
| 20260905162100 | 64 | 278 | 11.3 | 19.1 | 0.00 | 0.00 | 0.00 | 57 | 1022.7 |
| 20260905160600 | 66 | 282 | 9.6 | 14.8 | 0.00 | 0.00 | 0.00 | 60 | 1022.6 |
| 20260905155100 | 64 | 295 | 9.6 | 13.0 | 0.00 | 0.00 | 0.00 | 62 | 1022.4 |
| 20260905153600 | 64 | 300 | 7.0 | 11.3 | 0.00 | 0.00 | 0.00 | 64 | 1022.3 |
| 20260905152059 | 64 | 306 | 7.0 | 13.0 | 0.00 | 0.00 | 0.00 | 66 | 1022.2 |
| 20260905150559 | 64 | 298 | 7.0 | 13.0 | 0.00 | 0.00 | 0.00 | 65 | 1022.1 |
| 20260905145058 | 64 | 261 | 11.3 | 17.4 | 0.00 | 0.00 | 0.00 | 62 | 1021.8 |
| 20260905143559 | 64 | 259 | 11.3 | 17.4 | 0.00 | 0.00 | 0.00 | 62 | 1021.8 |
| 20260905142058 | 64 | 270 | 11.3 | 20.9 | 0.00 | 0.00 | 0.00 | 63 | 1021.6 |
| 20260905140557 | 64 | 269 | 13.0 | 20.9 | 0.00 | 0.00 | 0.00 | 63 | 1021.6 |
| 20260905135057 | 66 | 271 | 11.3 | 19.1 | 0.00 | 0.00 | 0.00 | 61 | 1021.2 |
| 20260905133558 | 66 | 264 | 11.3 | 19.1 | 0.00 | 0.00 | 0.00 | 59 | 1021.1 |